This demonstration page uses our WeatherBlox Daily Observations layout. Learn more.

Left ArrowRight Arrow

39.92423, -83.80882

Hourly Observations for January 8, 2019

Temp ( °F °C ) Dew Point ( °F °C ) Humidity (%) Winds ( mph kmh ) Pressure ( in mb ) Visibility ( mi km ) Precip ( " mm )
12:22 am 00:22 Mostly Cloudy 54 12 48 9 82 82 SW 15 24 29.88 1012 10 16 N/A
12:54 am 00:54 Cloudy 54 12 50 10 88 88 SW 14 22 29.91 1013 10 16 N/A
12:56 am 00:56 Cloudy 53 11.7 50 10 89 89 SW 14 22 29.91 1013 10 16 N/A
1:56 am 01:56 Cloudy 53 11.7 50 10 89 89 SW 14 22 29.93 1013 10 16 N/A
2:56 am 02:56 Mostly Cloudy 53 11.7 50 10 89 89 SSW 13 20 29.91 1013 10 16 N/A
3:18 am 03:18 Partly Cloudy 52 11 48 9 88 88 SW 12 19 29.91 1013 10 16 N/A
3:33 am 03:33 Mostly Cloudy 52 11 48 9 88 88 SW 9 15 29.91 1013 10 16 N/A
3:56 am 03:56 Cloudy 51 10.6 50 10 96 96 SW 8 13 29.91 1013 10 16 N/A
4:56 am 04:56 Mostly Cloudy 52 11.1 50 10 93 93 SW 10 17 29.89 1012 10 16 N/A
5:08 am 05:08 Mostly Cloudy 52 11 50 10 94 94 SW 9 15 29.88 1012 10 16 N/A
5:56 am 05:56 Mostly Cloudy 51 10.6 50 10 96 96 SW 10 17 29.88 1012 10 16 N/A
6:56 am 06:56 Partly Cloudy 51 10.6 50 10 96 96 SSW 12 19 29.86 1011 10 16 N/A
7:15 am 07:15 Mostly Cloudy 52 11 50 10 94 94 SSW 13 20 29.85 1011 10 16 N/A
7:22 am 07:22 Mostly Cloudy 52 11 50 10 94 94 SSW 14 22 29.85 1011 10 16 N/A
7:32 am 07:32 Mostly Cloudy 52 11 50 10 94 94 SSW 15 24 29.85 1011 10 16 N/A
7:46 am 07:46 Mostly Cloudy 52 11 50 10 94 94 SSW 14 22 29.83 1010 10 16 N/A
7:56 am 07:56 Mostly Clear 51 10.6 50 10 96 96 SSW 14 22 29.84 1011 10 16 N/A
8:28 am 08:28 Mostly Cloudy 52 11 50 10 94 94 SSW 14 22 29.83 1010 10 16 N/A
8:56 am 08:56 Cloudy 52 11.1 50 10 93 93 SW 14 22 29.85 1011 10 16 N/A
9:22 am 09:22 Cloudy 52 11 50 10 94 94 SW 12 19 29.83 1010 10 16 N/A
9:32 am 09:32 Cloudy 54 12 50 10 88 88 SW 15 24 29.83 1010 10 16 N/A
9:56 am 09:56 Cloudy 53 11.7 50 10 89 89 SW 14 22 29.83 1010 10 16 N/A
10:56 am 10:56 Cloudy 56 13.3 50 10 81 81 SW 17 28 29.82 1010 10 16 N/A
11:25 am 11:25 Cloudy 57 14 48 9 72 72 SW 20 31 29.80 1009 10 16 N/A
11:41 am 11:41 Cloudy 57 14 48 9 72 72 SW 21 33 29.77 1008 10 16 N/A
11:56 am 11:56 Mostly Cloudy 57 13.9 47 8.3 69 69 SW 25 41 29.76 1008 10 16 N/A
12:56 pm 12:56 Mostly Sunny 59 15 43 6.1 56 56 SW 22 35 29.71 1006 10 16 N/A
1:56 pm 13:56 Sunny 59 15 43 6.1 56 56 WSW 30 48 29.69 1006 10 16 N/A
2:56 pm 14:56 Partly Cloudy 56 13.3 39 3.9 53 53 W 29 46 29.70 1006 10 16 N/A
3:56 pm 15:56 Partly Cloudy 52 11.1 38 3.3 59 59 WNW 30 48 29.77 1008 10 16 N/A
4:56 pm 16:56 Cloudy 47 8.3 37 2.8 69 69 W 21 33 29.83 1010 10 16 N/A
5:56 pm 17:56 Cloudy 45 7.2 37 2.8 74 74 W 29 46 29.87 1012 10 16 N/A
6:36 pm 18:36 Cloudy 45 7 36 2 71 71 W 28 44 29.91 1013 10 16 N/A
6:56 pm 18:56 Mostly Cloudy 44 6.7 36 2.2 73 73 W 21 33 29.91 1013 10 16 N/A
7:56 pm 19:56 Mostly Clear 42 5.6 31 -0.6 65 65 W 23 37 29.95 1014 10 16 N/A
8:56 pm 20:56 Clear 40 4.4 27 -2.8 60 60 W 18 30 29.98 1015 10 16 N/A
9:56 pm 21:56 Mostly Cloudy 40 4.4 26 -3.3 58 58 W 22 35 29.98 1015 10 16 N/A
10:56 pm 22:56 Cloudy 40 4.4 27 -2.8 60 60 W 20 31 29.97 1015 10 16 N/A
11:56 pm 23:56 Cloudy 40 4.4 28 -2.2 63 63 W 21 33 29.95 1014 10 16 N/A

Powered by AerisWeather